Year,Month,Day,Hour,Minute,Value (Times are PST for temperature in C)
2023,05,15,00,00,14.60
2023,05,15,00,01,14.60
2023,05,15,00,02,14.60
2023,05,15,00,03,14.50
2023,05,15,00,04,14.50
2023,05,15,00,05,14.50
2023,05,15,00,06,14.50
2023,05,15,00,07,14.50
2023,05,15,00,08,14.50
2023,05,15,00,09,14.50
2023,05,15,00,10,14.40
2023,05,15,00,11,14.40
2023,05,15,00,12,14.40
2023,05,15,00,13,14.40
2023,05,15,00,14,14.40
2023,05,15,00,15,14.40
2023,05,15,00,16,14.40
2023,05,15,00,17,14.40
2023,05,15,00,18,14.40
2023,05,15,00,19,14.40
2023,05,15,00,20,14.40
2023,05,15,00,21,14.40
2023,05,15,00,22,14.30
2023,05,15,00,23,14.30
2023,05,15,00,24,14.30
2023,05,15,00,25,14.30
2023,05,15,00,26,14.30
2023,05,15,00,27,14.30
2023,05,15,00,28,14.20
2023,05,15,00,29,14.20
2023,05,15,00,30,14.30
2023,05,15,00,31,14.20
2023,05,15,00,32,14.30
2023,05,15,00,33,14.30
2023,05,15,00,34,14.20
2023,05,15,00,35,14.20
2023,05,15,00,36,14.20
2023,05,15,00,37,14.10
2023,05,15,00,38,14.00
2023,05,15,00,39,14.00
2023,05,15,00,40,14.00
2023,05,15,00,41,14.00
2023,05,15,00,42,14.00
2023,05,15,00,43,14.10
2023,05,15,00,44,14.20
2023,05,15,00,45,14.20
2023,05,15,00,46,14.20
2023,05,15,00,47,14.20
2023,05,15,00,48,14.10
2023,05,15,00,49,14.10
2023,05,15,00,50,13.90
2023,05,15,00,51,13.90
2023,05,15,00,52,13.80
2023,05,15,00,53,13.80
2023,05,15,00,54,13.80
2023,05,15,00,55,13.90
2023,05,15,00,56,14.00
2023,05,15,00,57,14.30
2023,05,15,00,58,14.50
2023,05,15,00,59,14.70
2023,05,15,01,00,14.90
2023,05,15,01,01,15.00
2023,05,15,01,02,15.00
2023,05,15,01,03,15.00
2023,05,15,01,04,14.90
2023,05,15,01,05,14.90
2023,05,15,01,06,14.90
2023,05,15,01,07,14.90
2023,05,15,01,08,14.90
2023,05,15,01,09,14.90
2023,05,15,01,10,14.90
2023,05,15,01,11,14.90
2023,05,15,01,12,14.80
2023,05,15,01,13,14.80
2023,05,15,01,14,14.70
2023,05,15,01,15,14.70
2023,05,15,01,16,14.70
2023,05,15,01,17,14.70
2023,05,15,01,18,14.90
2023,05,15,01,19,15.00
2023,05,15,01,20,15.10
2023,05,15,01,21,15.30
2023,05,15,01,22,15.30
2023,05,15,01,23,15.30
2023,05,15,01,24,15.30
2023,05,15,01,25,15.20
2023,05,15,01,26,15.10
2023,05,15,01,27,15.00
2023,05,15,01,28,15.00
2023,05,15,01,29,15.00
2023,05,15,01,30,15.00
2023,05,15,01,31,15.00
2023,05,15,01,32,15.10
2023,05,15,01,33,15.20
2023,05,15,01,34,15.20
2023,05,15,01,35,15.10
2023,05,15,01,36,15.10
2023,05,15,01,37,15.00
2023,05,15,01,38,15.00
2023,05,15,01,39,14.90
2023,05,15,01,40,14.90
2023,05,15,01,41,15.00
2023,05,15,01,42,15.00
2023,05,15,01,43,15.00
2023,05,15,01,44,15.00
2023,05,15,01,45,15.00
2023,05,15,01,46,15.00
2023,05,15,01,47,14.90
2023,05,15,01,48,14.90
2023,05,15,01,49,14.90
2023,05,15,01,50,14.90
2023,05,15,01,51,14.90
2023,05,15,01,52,14.80
2023,05,15,01,53,14.80
2023,05,15,01,54,14.80
2023,05,15,01,55,15.00
2023,05,15,01,56,15.30
2023,05,15,01,57,15.30
2023,05,15,01,58,15.40
2023,05,15,01,59,15.60
2023,05,15,02,00,15.70
2023,05,15,02,01,15.80
2023,05,15,02,02,15.70
2023,05,15,02,03,15.70
2023,05,15,02,04,15.70
2023,05,15,02,05,15.60
2023,05,15,02,06,15.50
2023,05,15,02,07,15.50
2023,05,15,02,08,15.40
2023,05,15,02,09,15.30
2023,05,15,02,10,15.30
2023,05,15,02,11,15.30
2023,05,15,02,12,15.30
2023,05,15,02,13,15.30
2023,05,15,02,14,15.30
2023,05,15,02,15,15.30
2023,05,15,02,16,15.40
2023,05,15,02,17,15.50
2023,05,15,02,18,15.60
2023,05,15,02,19,15.80
2023,05,15,02,20,15.90
2023,05,15,02,21,16.00
2023,05,15,02,22,16.10
2023,05,15,02,23,16.20
2023,05,15,02,24,16.30
2023,05,15,02,25,16.60
2023,05,15,02,26,16.70
2023,05,15,02,27,16.80
2023,05,15,02,28,16.80
2023,05,15,02,29,16.80
2023,05,15,02,30,17.00
2023,05,15,02,31,17.20
2023,05,15,02,32,17.30
2023,05,15,02,33,17.50
2023,05,15,02,34,17.50
2023,05,15,02,35,17.60
2023,05,15,02,36,17.70
2023,05,15,02,37,17.70
2023,05,15,02,38,17.70
2023,05,15,02,39,17.70
2023,05,15,02,40,17.80
2023,05,15,02,41,17.90
2023,05,15,02,42,18.00
2023,05,15,02,43,18.10
2023,05,15,02,44,18.20
2023,05,15,02,45,18.30
2023,05,15,02,46,18.50
2023,05,15,02,47,18.60
2023,05,15,02,48,18.80
2023,05,15,02,49,18.90
2023,05,15,02,50,18.90
2023,05,15,02,51,19.00
2023,05,15,02,52,19.10
2023,05,15,02,53,19.10
2023,05,15,02,54,19.20
2023,05,15,02,55,19.20
2023,05,15,02,56,19.30
2023,05,15,02,57,19.30
2023,05,15,02,58,19.30
2023,05,15,02,59,19.30
2023,05,15,03,00,19.40
2023,05,15,03,01,19.40
2023,05,15,03,02,19.10
2023,05,15,03,03,18.70
2023,05,15,03,04,18.30
2023,05,15,03,05,18.00
2023,05,15,03,06,17.70
2023,05,15,03,07,17.50
2023,05,15,03,08,17.20
2023,05,15,03,09,17.00
2023,05,15,03,10,16.80
2023,05,15,03,11,16.60
2023,05,15,03,12,16.40
2023,05,15,03,13,16.30
2023,05,15,03,14,16.10
2023,05,15,03,15,16.10
2023,05,15,03,16,16.20
2023,05,15,03,17,16.30
2023,05,15,03,18,16.30
2023,05,15,03,19,16.30
2023,05,15,03,20,16.30
2023,05,15,03,21,16.30
2023,05,15,03,22,16.20
2023,05,15,03,23,16.20
2023,05,15,03,24,16.20
2023,05,15,03,25,16.20
2023,05,15,03,26,16.10
2023,05,15,03,27,16.00
2023,05,15,03,28,16.00
2023,05,15,03,29,16.00
2023,05,15,03,30,16.00
2023,05,15,03,31,16.00
2023,05,15,03,32,16.00
2023,05,15,03,33,16.10
2023,05,15,03,34,16.20
2023,05,15,03,35,16.30
2023,05,15,03,36,16.30
2023,05,15,03,37,16.50
2023,05,15,03,38,16.60
2023,05,15,03,39,16.70
2023,05,15,03,40,16.80
2023,05,15,03,41,16.80
2023,05,15,03,42,16.90
2023,05,15,03,43,17.00
2023,05,15,03,44,17.10
2023,05,15,03,45,17.20
2023,05,15,03,46,17.20
2023,05,15,03,47,17.20
2023,05,15,03,48,17.20
2023,05,15,03,49,17.20
2023,05,15,03,50,17.20
2023,05,15,03,51,17.20
2023,05,15,03,52,17.20
2023,05,15,03,53,17.10
2023,05,15,03,54,17.10
2023,05,15,03,55,17.10
2023,05,15,03,56,17.10
2023,05,15,03,57,17.10
2023,05,15,03,58,17.10
2023,05,15,03,59,17.10
2023,05,15,04,00,17.10
2023,05,15,04,01,17.10
2023,05,15,04,02,17.10
2023,05,15,04,03,17.10
2023,05,15,04,04,17.10
2023,05,15,04,05,17.10
2023,05,15,04,06,17.10
2023,05,15,04,07,17.00
2023,05,15,04,08,17.00
2023,05,15,04,09,16.90
2023,05,15,04,10,16.80
2023,05,15,04,11,16.80
2023,05,15,04,12,16.80
2023,05,15,04,13,16.70
2023,05,15,04,14,16.60
2023,05,15,04,15,16.60
2023,05,15,04,16,16.50
2023,05,15,04,17,16.40
2023,05,15,04,18,16.30
2023,05,15,04,19,16.30
2023,05,15,04,20,16.20
2023,05,15,04,21,16.10
2023,05,15,04,22,16.10
2023,05,15,04,23,16.20
2023,05,15,04,24,16.30
2023,05,15,04,25,16.50
2023,05,15,04,26,16.70
2023,05,15,04,27,16.80
2023,05,15,04,28,16.80
2023,05,15,04,29,16.80
2023,05,15,04,30,16.80
2023,05,15,04,31,16.70
2023,05,15,04,32,16.70
2023,05,15,04,33,16.60
2023,05,15,04,34,16.50
2023,05,15,04,35,16.30
2023,05,15,04,36,16.10
2023,05,15,04,37,16.00
2023,05,15,04,38,15.90
2023,05,15,04,39,15.80
2023,05,15,04,40,15.70
2023,05,15,04,41,15.70
2023,05,15,04,42,15.70
2023,05,15,04,43,15.60
2023,05,15,04,44,15.60
2023,05,15,04,45,15.60
2023,05,15,04,46,15.60
2023,05,15,04,47,15.60
2023,05,15,04,48,15.80
2023,05,15,04,49,16.10
2023,05,15,04,50,16.50
2023,05,15,04,51,16.80
2023,05,15,04,52,17.00
2023,05,15,04,53,17.20
2023,05,15,04,54,17.30
2023,05,15,04,55,17.40
2023,05,15,04,56,17.50
2023,05,15,04,57,17.50
2023,05,15,04,58,17.50
2023,05,15,04,59,17.60
2023,05,15,05,00,17.60
2023,05,15,05,01,17.60
2023,05,15,05,02,17.60
2023,05,15,05,03,17.60
2023,05,15,05,04,17.70
2023,05,15,05,05,17.70
2023,05,15,05,06,17.90
2023,05,15,05,07,18.10
2023,05,15,05,08,18.20
2023,05,15,05,09,18.30
2023,05,15,05,10,18.30
2023,05,15,05,11,18.40
2023,05,15,05,12,18.40
2023,05,15,05,13,18.40
2023,05,15,05,14,18.50
2023,05,15,05,15,18.60
2023,05,15,05,16,18.60
2023,05,15,05,17,18.60
2023,05,15,05,18,18.60
2023,05,15,05,19,18.60
2023,05,15,05,20,18.60
2023,05,15,05,21,18.70
2023,05,15,05,22,18.70
2023,05,15,05,23,18.70
2023,05,15,05,24,18.60
2023,05,15,05,25,18.60
2023,05,15,05,26,18.60
2023,05,15,05,27,18.60
2023,05,15,05,28,18.50
2023,05,15,05,29,18.50
2023,05,15,05,30,18.40
2023,05,15,05,31,18.40
2023,05,15,05,32,18.40
2023,05,15,05,33,18.30
2023,05,15,05,34,18.30
2023,05,15,05,35,18.30
2023,05,15,05,36,18.40
2023,05,15,05,37,18.40
2023,05,15,05,38,18.40
2023,05,15,05,39,18.40
2023,05,15,05,40,18.40
2023,05,15,05,41,18.40
2023,05,15,05,42,18.40
2023,05,15,05,43,18.40
2023,05,15,05,44,18.30
2023,05,15,05,45,18.40
2023,05,15,05,46,18.40
2023,05,15,05,47,18.40
2023,05,15,05,48,18.40
2023,05,15,05,49,18.40
2023,05,15,05,50,18.40
2023,05,15,05,51,18.40
2023,05,15,05,52,18.40
2023,05,15,05,53,18.30
2023,05,15,05,54,18.20
2023,05,15,05,55,18.20
2023,05,15,05,56,18.20
2023,05,15,05,57,18.20
2023,05,15,05,58,18.30
2023,05,15,05,59,18.30
2023,05,15,06,00,18.30
2023,05,15,06,01,18.30
2023,05,15,06,02,18.30
2023,05,15,06,03,18.40
2023,05,15,06,04,18.40
2023,05,15,06,05,18.40
2023,05,15,06,06,18.40
2023,05,15,06,07,18.50
2023,05,15,06,08,18.50
2023,05,15,06,09,18.60
2023,05,15,06,10,18.60
2023,05,15,06,11,18.60
2023,05,15,06,12,18.70
2023,05,15,06,13,18.70
2023,05,15,06,14,18.70
2023,05,15,06,15,18.70
2023,05,15,06,16,18.70
2023,05,15,06,17,18.70
2023,05,15,06,18,18.70
2023,05,15,06,19,18.70
2023,05,15,06,20,18.70
2023,05,15,06,21,18.70
2023,05,15,06,22,18.60
2023,05,15,06,23,18.60
2023,05,15,06,24,18.60
2023,05,15,06,25,18.50
2023,05,15,06,26,18.50
2023,05,15,06,27,18.40
2023,05,15,06,28,18.40
2023,05,15,06,29,18.40
2023,05,15,06,30,18.40
2023,05,15,06,31,18.40
2023,05,15,06,32,18.40
2023,05,15,06,33,18.40
2023,05,15,06,34,18.50
2023,05,15,06,35,18.50
2023,05,15,06,36,18.50
2023,05,15,06,37,18.60
2023,05,15,06,38,18.60
2023,05,15,06,39,18.60
2023,05,15,06,40,18.70
2023,05,15,06,41,18.70
2023,05,15,06,42,18.70
2023,05,15,06,43,18.80
2023,05,15,06,44,18.80
2023,05,15,06,45,18.80
2023,05,15,06,46,18.90
2023,05,15,06,47,18.90
2023,05,15,06,48,19.00
2023,05,15,06,49,19.00
2023,05,15,06,50,19.10
2023,05,15,06,51,19.10
2023,05,15,06,52,19.10
2023,05,15,06,53,19.10
2023,05,15,06,54,19.10
2023,05,15,06,55,19.10
2023,05,15,06,56,19.10
2023,05,15,06,57,19.10
2023,05,15,06,58,19.00
2023,05,15,06,59,19.00
2023,05,15,07,00,18.90
2023,05,15,07,01,18.80
2023,05,15,07,02,18.70
2023,05,15,07,03,18.70
2023,05,15,07,04,18.60
2023,05,15,07,05,18.60
2023,05,15,07,06,18.60
2023,05,15,07,07,18.70
2023,05,15,07,08,18.70
2023,05,15,07,09,18.70
2023,05,15,07,10,18.70
2023,05,15,07,11,18.80
2023,05,15,07,12,18.80
2023,05,15,07,13,18.80
2023,05,15,07,14,18.80
2023,05,15,07,15,18.90
2023,05,15,07,16,18.90
2023,05,15,07,17,18.90
2023,05,15,07,18,18.70
2023,05,15,07,19,18.60
2023,05,15,07,20,18.40
2023,05,15,07,21,18.30
2023,05,15,07,22,18.20
2023,05,15,07,23,18.20
2023,05,15,07,24,18.10
2023,05,15,07,25,18.10
2023,05,15,07,26,18.10
2023,05,15,07,27,18.10
2023,05,15,07,28,18.10
2023,05,15,07,29,18.20
2023,05,15,07,30,18.30
2023,05,15,07,31,18.40
2023,05,15,07,32,18.30
2023,05,15,07,33,18.40
2023,05,15,07,34,18.40
2023,05,15,07,35,18.40
2023,05,15,07,36,18.40
2023,05,15,07,37,18.40
2023,05,15,07,38,18.40
2023,05,15,07,39,18.40
2023,05,15,07,40,18.30
2023,05,15,07,41,18.00
2023,05,15,07,42,17.40
2023,05,15,07,43,17.00
2023,05,15,07,44,16.60
2023,05,15,07,45,16.30
2023,05,15,07,46,16.00
2023,05,15,07,47,15.80
2023,05,15,07,48,15.60
2023,05,15,07,49,15.40
2023,05,15,07,50,15.40
2023,05,15,07,51,15.30
2023,05,15,07,52,15.30
2023,05,15,07,53,15.30
2023,05,15,07,54,15.30
2023,05,15,07,55,15.40
2023,05,15,07,56,15.50
2023,05,15,07,57,15.60
2023,05,15,07,58,15.70
2023,05,15,07,59,15.70
2023,05,15,08,00,15.80
2023,05,15,08,01,15.80
2023,05,15,08,02,15.80
2023,05,15,08,03,15.90
2023,05,15,08,04,16.00
2023,05,15,08,05,16.10
2023,05,15,08,06,16.30
2023,05,15,08,07,16.30
2023,05,15,08,08,16.30
2023,05,15,08,09,16.30
2023,05,15,08,10,16.30
2023,05,15,08,11,16.30
2023,05,15,08,12,16.30
2023,05,15,08,13,16.30
2023,05,15,08,14,16.10
2023,05,15,08,15,16.00
2023,05,15,08,16,15.90
2023,05,15,08,17,15.90
2023,05,15,08,18,16.00
2023,05,15,08,19,16.20
2023,05,15,08,20,16.30
2023,05,15,08,21,16.40
2023,05,15,08,22,16.60
2023,05,15,08,23,16.70
2023,05,15,08,24,16.80
2023,05,15,08,25,16.90
2023,05,15,08,26,17.10
2023,05,15,08,27,17.20
2023,05,15,08,28,17.30
2023,05,15,08,29,17.40
2023,05,15,08,30,17.60
2023,05,15,08,31,17.70
2023,05,15,08,32,17.80
2023,05,15,08,33,17.90
2023,05,15,08,34,18.10
2023,05,15,08,35,18.20
2023,05,15,08,36,18.20
2023,05,15,08,37,18.30
2023,05,15,08,38,18.20
2023,05,15,08,39,18.10
2023,05,15,08,40,18.00
2023,05,15,08,41,17.70
2023,05,15,08,42,17.50
2023,05,15,08,43,17.30
2023,05,15,08,44,17.20
2023,05,15,08,45,17.10
2023,05,15,08,46,17.10
2023,05,15,08,47,17.10
2023,05,15,08,48,17.10
2023,05,15,08,49,17.10
2023,05,15,08,50,17.10
2023,05,15,08,51,17.10
2023,05,15,08,52,17.10
2023,05,15,08,53,17.10
2023,05,15,08,54,17.10
2023,05,15,08,55,17.10
2023,05,15,08,56,17.00
2023,05,15,08,57,16.90
2023,05,15,08,58,16.80
2023,05,15,08,59,16.70
2023,05,15,09,00,16.70
2023,05,15,09,01,16.60
2023,05,15,09,02,16.60
2023,05,15,09,03,16.60
2023,05,15,09,04,16.60
2023,05,15,09,05,16.60
2023,05,15,09,06,16.60
2023,05,15,09,07,16.50
2023,05,15,09,08,16.30
2023,05,15,09,09,16.10
2023,05,15,09,10,15.90
2023,05,15,09,11,15.80
2023,05,15,09,12,15.70
2023,05,15,09,13,15.60
2023,05,15,09,14,15.50
2023,05,15,09,15,15.50
2023,05,15,09,16,15.40
2023,05,15,09,17,15.40
2023,05,15,09,18,15.40
2023,05,15,09,19,15.30
2023,05,15,09,20,15.30
2023,05,15,09,21,15.30
2023,05,15,09,22,15.30
2023,05,15,09,23,15.30
2023,05,15,09,24,15.30
2023,05,15,09,25,15.20
2023,05,15,09,26,15.10
2023,05,15,09,27,15.10
2023,05,15,09,28,15.10
2023,05,15,09,29,15.10
2023,05,15,09,30,15.20
2023,05,15,09,31,15.20
2023,05,15,09,32,15.20
2023,05,15,09,33,15.30
2023,05,15,09,34,15.40
2023,05,15,09,35,15.60
2023,05,15,09,36,15.70
2023,05,15,09,37,15.90
2023,05,15,09,38,16.10
2023,05,15,09,39,16.30
2023,05,15,09,40,16.50
2023,05,15,09,41,16.70
2023,05,15,09,42,16.90
2023,05,15,09,43,17.10
2023,05,15,09,44,17.30
2023,05,15,09,45,17.50
2023,05,15,09,46,17.60
2023,05,15,09,47,17.80
2023,05,15,09,48,17.90
2023,05,15,09,49,18.00
2023,05,15,09,50,18.10
2023,05,15,09,51,18.20
2023,05,15,09,52,18.30
2023,05,15,09,53,18.40
2023,05,15,09,54,18.50
2023,05,15,09,55,18.60
2023,05,15,09,56,18.70
2023,05,15,09,57,18.70
2023,05,15,09,58,18.60
2023,05,15,09,59,18.60
2023,05,15,10,00,18.50
2023,05,15,10,01,18.40
2023,05,15,10,02,18.40
2023,05,15,10,03,18.30
2023,05,15,10,04,18.30
2023,05,15,10,05,18.30
2023,05,15,10,06,18.20
2023,05,15,10,07,18.10
2023,05,15,10,08,18.00
2023,05,15,10,09,18.00
2023,05,15,10,10,17.90
2023,05,15,10,11,17.90
2023,05,15,10,12,17.80
2023,05,15,10,13,17.90
2023,05,15,10,14,17.90
2023,05,15,10,15,18.00
2023,05,15,10,16,18.00
2023,05,15,10,17,18.10
2023,05,15,10,18,18.20
2023,05,15,10,19,18.30
2023,05,15,10,20,18.30
2023,05,15,10,21,18.40
2023,05,15,10,22,18.50
2023,05,15,10,23,18.60
2023,05,15,10,24,18.70
2023,05,15,10,25,18.70
2023,05,15,10,26,18.80
2023,05,15,10,27,18.90
2023,05,15,10,28,19.10
2023,05,15,10,29,19.20
2023,05,15,10,30,19.30
2023,05,15,10,31,19.40
2023,05,15,10,32,19.50
2023,05,15,10,33,19.60
2023,05,15,10,34,19.60
2023,05,15,10,35,19.70
2023,05,15,10,36,19.80
2023,05,15,10,37,19.90
2023,05,15,10,38,19.90
2023,05,15,10,39,20.00
2023,05,15,10,40,20.10
2023,05,15,10,41,20.20
2023,05,15,10,42,20.30
2023,05,15,10,43,20.40
2023,05,15,10,44,20.50
2023,05,15,10,45,20.60
2023,05,15,10,46,20.70
2023,05,15,10,47,20.70
2023,05,15,10,48,20.70
2023,05,15,10,49,20.70
2023,05,15,10,50,20.80
2023,05,15,10,51,20.80
2023,05,15,10,52,20.80
2023,05,15,10,53,20.80
2023,05,15,10,54,20.70
2023,05,15,10,55,20.60
2023,05,15,10,56,20.50
2023,05,15,10,57,20.40
2023,05,15,10,58,20.40
2023,05,15,10,59,20.30
2023,05,15,11,00,20.30
2023,05,15,11,01,20.30
2023,05,15,11,02,20.20
2023,05,15,11,03,20.10
2023,05,15,11,04,20.00
2023,05,15,11,05,19.90
2023,05,15,11,06,19.90
2023,05,15,11,07,19.90
2023,05,15,11,08,19.90
2023,05,15,11,09,19.80
2023,05,15,11,10,19.60
2023,05,15,11,11,19.50
2023,05,15,11,12,19.40
2023,05,15,11,13,19.30
2023,05,15,11,14,19.30
2023,05,15,11,15,19.30
2023,05,15,11,16,19.20
2023,05,15,11,17,19.20
2023,05,15,11,18,19.20
2023,05,15,11,19,19.30
2023,05,15,11,20,19.30
2023,05,15,11,21,19.40
2023,05,15,11,22,19.40
2023,05,15,11,23,19.50
2023,05,15,11,24,19.50
2023,05,15,11,25,19.50
2023,05,15,11,26,19.50
2023,05,15,11,27,19.50
2023,05,15,11,28,19.50
2023,05,15,11,29,19.60
2023,05,15,11,30,19.60
2023,05,15,11,31,19.60
2023,05,15,11,32,19.70
2023,05,15,11,33,19.70
2023,05,15,11,34,19.80
2023,05,15,11,35,19.90
2023,05,15,11,36,19.90
2023,05,15,11,37,20.00
2023,05,15,11,38,20.10
2023,05,15,11,39,20.20
2023,05,15,11,40,20.30
2023,05,15,11,41,20.40
2023,05,15,11,42,20.50
2023,05,15,11,43,20.60
2023,05,15,11,44,20.70
2023,05,15,11,45,20.70
2023,05,15,11,46,20.80
2023,05,15,11,47,20.90
2023,05,15,11,48,20.90
2023,05,15,11,49,21.00
2023,05,15,11,50,21.10
2023,05,15,11,51,21.10
2023,05,15,11,52,21.20
2023,05,15,11,53,21.20
2023,05,15,11,54,21.30
2023,05,15,11,55,21.30
2023,05,15,11,56,21.30
2023,05,15,11,57,21.30
2023,05,15,11,58,21.30
2023,05,15,11,59,21.30
2023,05,15,12,00,21.30
2023,05,15,12,01,21.30
2023,05,15,12,02,21.30
2023,05,15,12,03,21.30
2023,05,15,12,04,21.20
2023,05,15,12,05,21.20
2023,05,15,12,06,21.20
2023,05,15,12,07,21.20
2023,05,15,12,08,21.20
2023,05,15,12,09,21.20
2023,05,15,12,10,21.30
2023,05,15,12,11,21.30
2023,05,15,12,12,21.30
2023,05,15,12,13,21.30
2023,05,15,12,14,21.30
2023,05,15,12,15,21.20
2023,05,15,12,16,21.20
2023,05,15,12,17,21.20
2023,05,15,12,18,21.10
2023,05,15,12,19,21.10
2023,05,15,12,20,21.00
2023,05,15,12,21,20.90
2023,05,15,12,22,20.80
2023,05,15,12,23,20.70
2023,05,15,12,24,20.70
2023,05,15,12,25,20.70
2023,05,15,12,26,20.70
2023,05,15,12,27,20.60
2023,05,15,12,28,20.40
2023,05,15,12,29,20.30
2023,05,15,12,30,20.10
2023,05,15,12,31,19.90
2023,05,15,12,32,19.70
2023,05,15,12,33,19.60
2023,05,15,12,34,19.60
2023,05,15,12,35,19.60
2023,05,15,12,36,19.60
2023,05,15,12,37,19.70
2023,05,15,12,38,19.70
2023,05,15,12,39,19.80
2023,05,15,12,40,19.90
2023,05,15,12,41,19.90
2023,05,15,12,42,20.00
2023,05,15,12,43,20.10
2023,05,15,12,44,20.20
2023,05,15,12,45,20.30
2023,05,15,12,46,20.40
2023,05,15,12,47,20.50
2023,05,15,12,48,20.60
2023,05,15,12,49,20.70
2023,05,15,12,50,20.70
2023,05,15,12,51,20.90
2023,05,15,12,52,21.00
2023,05,15,12,53,21.10
2023,05,15,12,54,21.20
2023,05,15,12,55,21.30
2023,05,15,12,56,21.40
2023,05,15,12,57,21.50
2023,05,15,12,58,21.60
2023,05,15,12,59,21.70
2023,05,15,13,00,21.80
2023,05,15,13,01,21.90
2023,05,15,13,02,21.90
2023,05,15,13,03,22.00
2023,05,15,13,04,22.10
2023,05,15,13,05,22.10
2023,05,15,13,06,22.20
2023,05,15,13,07,22.30
2023,05,15,13,08,22.30
2023,05,15,13,09,22.30
2023,05,15,13,10,22.20
2023,05,15,13,11,21.90
2023,05,15,13,12,21.70
2023,05,15,13,13,21.40
2023,05,15,13,14,21.10
2023,05,15,13,15,21.00
2023,05,15,13,16,20.80
2023,05,15,13,17,20.60
2023,05,15,13,18,20.30
2023,05,15,13,19,20.10
2023,05,15,13,20,20.00
2023,05,15,13,21,19.90
2023,05,15,13,22,19.80
2023,05,15,13,23,19.70
2023,05,15,13,24,19.70
2023,05,15,13,25,19.70
2023,05,15,13,26,19.80
2023,05,15,13,27,19.90
2023,05,15,13,28,20.00
2023,05,15,13,29,20.10
2023,05,15,13,30,20.20
2023,05,15,13,31,20.30
2023,05,15,13,32,20.40
2023,05,15,13,33,20.60
2023,05,15,13,34,20.70
2023,05,15,13,35,21.00
2023,05,15,13,36,21.20
2023,05,15,13,37,21.30
2023,05,15,13,38,21.50
2023,05,15,13,39,21.60
2023,05,15,13,40,21.80
2023,05,15,13,41,21.90
2023,05,15,13,42,22.00
2023,05,15,13,43,22.10
2023,05,15,13,44,22.20
2023,05,15,13,45,22.30
2023,05,15,13,46,22.40
2023,05,15,13,47,22.50
2023,05,15,13,48,22.60
2023,05,15,13,49,22.60
2023,05,15,13,50,22.60
2023,05,15,13,51,22.60
2023,05,15,13,52,22.60
2023,05,15,13,53,22.50
2023,05,15,13,54,22.60
2023,05,15,13,55,22.60
2023,05,15,13,56,22.60
2023,05,15,13,57,22.70
2023,05,15,13,58,22.70
2023,05,15,13,59,22.80
2023,05,15,14,00,22.90
2023,05,15,14,01,23.00
2023,05,15,14,02,23.10
2023,05,15,14,03,23.10
2023,05,15,14,04,23.20
2023,05,15,14,05,23.30
2023,05,15,14,06,23.30
2023,05,15,14,07,23.30
2023,05,15,14,08,23.30
2023,05,15,14,09,23.20
2023,05,15,14,10,23.30
2023,05,15,14,11,23.30
2023,05,15,14,12,23.30
2023,05,15,14,13,23.40
2023,05,15,14,14,23.40
2023,05,15,14,15,23.50
2023,05,15,14,16,23.60
2023,05,15,14,17,23.60
2023,05,15,14,18,23.60
2023,05,15,14,19,23.60
2023,05,15,14,20,23.70
2023,05,15,14,21,23.70
2023,05,15,14,22,23.80
2023,05,15,14,23,23.90
2023,05,15,14,24,23.90
2023,05,15,14,25,23.90
2023,05,15,14,26,23.80
2023,05,15,14,27,23.80
2023,05,15,14,28,23.80
2023,05,15,14,29,23.90
2023,05,15,14,30,23.90
2023,05,15,14,31,23.90
2023,05,15,14,32,23.90
2023,05,15,14,33,23.90
2023,05,15,14,34,23.90
2023,05,15,14,35,23.90
2023,05,15,14,36,23.90
2023,05,15,14,37,23.90
2023,05,15,14,38,23.90
2023,05,15,14,39,24.00
2023,05,15,14,40,24.00
2023,05,15,14,41,24.10
2023,05,15,14,42,24.10
2023,05,15,14,43,24.20
2023,05,15,14,44,24.20
2023,05,15,14,45,24.10
2023,05,15,14,46,24.10
2023,05,15,14,47,24.10
2023,05,15,14,48,23.90
2023,05,15,14,49,23.70
2023,05,15,14,50,23.50
2023,05,15,14,51,23.30
2023,05,15,14,52,23.10
2023,05,15,14,53,23.00
2023,05,15,14,54,22.70
2023,05,15,14,55,22.30
2023,05,15,14,56,21.70
2023,05,15,14,57,21.00
2023,05,15,14,58,20.30
2023,05,15,14,59,19.80
2023,05,15,15,00,19.30
2023,05,15,15,01,19.00
2023,05,15,15,02,18.70
2023,05,15,15,03,18.50
2023,05,15,15,04,18.40
2023,05,15,15,05,18.20
2023,05,15,15,06,18.20
2023,05,15,15,07,18.20
2023,05,15,15,08,18.20
2023,05,15,15,09,18.20
2023,05,15,15,10,18.20
2023,05,15,15,11,18.20
2023,05,15,15,12,18.20
2023,05,15,15,13,18.30
2023,05,15,15,14,18.30
2023,05,15,15,15,18.40
2023,05,15,15,16,18.50
2023,05,15,15,17,18.60
2023,05,15,15,18,18.60
2023,05,15,15,19,18.70
2023,05,15,15,20,18.80
2023,05,15,15,21,18.90
2023,05,15,15,22,19.00
2023,05,15,15,23,19.10
2023,05,15,15,24,19.10
2023,05,15,15,25,19.10
2023,05,15,15,26,19.10
2023,05,15,15,27,19.10
2023,05,15,15,28,19.10
2023,05,15,15,29,19.10
2023,05,15,15,30,19.10
2023,05,15,15,31,19.20
2023,05,15,15,32,19.30
2023,05,15,15,33,19.30
2023,05,15,15,34,19.30
2023,05,15,15,35,19.30
2023,05,15,15,36,19.30
2023,05,15,15,37,19.30
2023,05,15,15,38,19.30
2023,05,15,15,39,19.20
2023,05,15,15,40,19.20
2023,05,15,15,41,19.10
2023,05,15,15,42,19.10
2023,05,15,15,43,19.10
2023,05,15,15,44,19.10
2023,05,15,15,45,19.10
2023,05,15,15,46,19.10
2023,05,15,15,47,19.10
2023,05,15,15,48,19.10
2023,05,15,15,49,19.10
2023,05,15,15,50,19.10
2023,05,15,15,51,19.00
2023,05,15,15,52,19.10
2023,05,15,15,53,19.10
2023,05,15,15,54,19.20
2023,05,15,15,55,19.30
2023,05,15,15,56,19.40
2023,05,15,15,57,19.50
2023,05,15,15,58,19.60
2023,05,15,15,59,19.60
2023,05,15,16,00,19.70
2023,05,15,16,01,19.80
2023,05,15,16,02,19.80
2023,05,15,16,03,19.80
2023,05,15,16,04,19.80
2023,05,15,16,05,19.80
2023,05,15,16,06,19.70
2023,05,15,16,07,19.70
2023,05,15,16,08,19.60
2023,05,15,16,09,19.50
2023,05,15,16,10,19.50
2023,05,15,16,11,19.40
2023,05,15,16,12,19.40
2023,05,15,16,13,19.30
2023,05,15,16,14,19.30
2023,05,15,16,15,19.30
2023,05,15,16,16,19.40
2023,05,15,16,17,19.40
2023,05,15,16,18,19.40
2023,05,15,16,19,19.50
2023,05,15,16,20,19.50
2023,05,15,16,21,19.60
2023,05,15,16,22,19.70
2023,05,15,16,23,19.80
2023,05,15,16,24,19.80
2023,05,15,16,25,19.90
2023,05,15,16,26,19.90
2023,05,15,16,27,19.90
2023,05,15,16,28,20.00
2023,05,15,16,29,20.00
2023,05,15,16,30,20.10
2023,05,15,16,31,20.10
2023,05,15,16,32,20.10
2023,05,15,16,33,20.00
2023,05,15,16,34,19.90
2023,05,15,16,35,19.90
2023,05,15,16,36,19.80
2023,05,15,16,37,19.80
2023,05,15,16,38,19.70
2023,05,15,16,39,19.70
2023,05,15,16,40,19.60
2023,05,15,16,41,19.50
2023,05,15,16,42,19.30
2023,05,15,16,43,19.10
2023,05,15,16,44,18.90
2023,05,15,16,45,18.70
2023,05,15,16,46,18.60
2023,05,15,16,47,18.50
2023,05,15,16,48,18.30
2023,05,15,16,49,18.20
2023,05,15,16,50,18.10
2023,05,15,16,51,18.00
2023,05,15,16,52,17.90
2023,05,15,16,53,17.80
2023,05,15,16,54,17.70
2023,05,15,16,55,17.70
2023,05,15,16,56,17.60
2023,05,15,16,57,17.50
2023,05,15,16,58,17.50
2023,05,15,16,59,17.40
2023,05,15,17,00,17.30
2023,05,15,17,01,17.30
2023,05,15,17,02,17.20
2023,05,15,17,03,17.10
2023,05,15,17,04,17.10
2023,05,15,17,05,17.00
2023,05,15,17,06,16.90
2023,05,15,17,07,16.90
2023,05,15,17,08,16.80
2023,05,15,17,09,16.70
2023,05,15,17,10,16.60
2023,05,15,17,11,16.60
2023,05,15,17,12,16.40
2023,05,15,17,13,16.30
2023,05,15,17,14,16.20
2023,05,15,17,15,16.20
2023,05,15,17,16,16.10
2023,05,15,17,17,16.10
2023,05,15,17,18,16.10
2023,05,15,17,19,16.00